Location: Maynard F. Jordan Observatory
(44.9000°N, 68.6700°W)
Time: 01:13:07
(UTC-04:00)

Cosmos 2297 Rocket - Visible Passes

Search period start: 01 November 2014 00:00
Search period end: 10 November 2014 23:00
Orbit: 838 x 845 km, 71.0° (Epoch: 31 October)

Date Brightness Start Highest point End Pass type
(mag) Time Alt. Az. Time Alt. Az. Time Alt. Az.
01 Nov 4.0 03:41:44 26° NE 03:41:44 26° NE 03:44:11 10° NNE visible
01 Nov 3.4 05:23:35 23° NW 05:23:35 23° NW 05:27:37 10° N visible
02 Nov 4.4 02:27:31 20° NE 02:27:31 20° NE 02:29:08 10° NNE visible
02 Nov 3.6 04:09:21 23° NNW 04:09:21 23° NNW 04:12:38 10° N visible
03 Nov 4.7 02:13:14 15° NE 02:13:14 15° NE 02:14:06 10° NNE visible
03 Nov 3.8 03:55:04 21° NNW 03:55:04 21° NNW 03:57:40 10° N visible
04 Nov 5.0 01:58:53 11° NE 01:58:53 11° NE 01:59:03 10° NNE visible
04 Nov 4.0 03:40:43 18° N 03:40:43 18° N 03:42:41 10° N visible
05 Nov 4.2 03:26:19 16° N 03:26:19 16° N 03:27:42 10° N visible
06 Nov 4.5 03:11:53 14° N 03:11:53 14° N 03:12:42 10° N visible
07 Nov 4.7 02:57:25 11° N 02:57:25 11° N 02:57:43 10° N visible
